Vorticity
9 10 13 14 14 13 11 8 7 8 8 8 8 8 8 6 5 6 6 4 3 6 8 9 9 9 7 7 7 7 9 12 9 3 -2 -3 -1 1 3 5 6 5 4 3 4 3 3 4 4 5 4 4 4 2 4 4 4 4 2 -3 2 12 6 -3 6 20 17 19 22 4 5 8 3 3 -1 2 2 7 6 1 5 4 10 15 10 10 10 11
7 8 9 11 12 13 14 12 10 8 7 8 8 8 8 8 7 6 6 6 5 3 5 8 8 9 9 8 7 7 7 8 11 11 6 -0 -3 -2 -1 2 4 5 5 4 4 3 3 3 3 5 5 4 4 3 2 4 5 3 4 -6 -7 6 9 2 4 18 12 8 14 6 5 4 3 4 2 8 5 5 3 0 7 3 7 13 11 9 10 12
7 7 8 9 10 10 12 12 13 11 8 7 7 8 8 9 9 8 7 6 7 5 3 4 7 9 9 9 8 7 7 7 8 10 11 9 4 0 -2 -1 -0 3 4 5 4 3 3 2 3 4 6 6 4 4 2 4 5 3 5 0 -2 3 8 5 2 17 12 6 11 5 6 1 1 6 2 7 3 -2 2 2 5 3 5 9 10 8 8 10
7 7 8 9 10 10 10 10 12 12 11 9 7 7 7 8 9 9 9 7 7 7 6 4 3 7 8 9 9 9 8 7 8 8 9 11 11 9 5 2 -1 -1 1 3 4 3 3 2 2 3 5 6 6 6 3 4 4 4 5 -0 1 3 6 4 2 21 16 4 11 5 5 4 2 6 2 5 3 0 4 0 3 6 4 6 9 8 7 8
8 7 7 8 9 10 11 10 10 11 12 11 9 7 6 7 8 9 10 10 8 7 7 6 3 3 6 9 8 9 9 7 7 8 8 8 10 11 11 10 5 2 0 1 2 2 3 2 2 2 4 5 6 8 6 7 3 3 9 2 2 5 6 4 8 28 17 3 14 9 6 6 4 5 4 5 3 4 4 1 6 7 4 6 8 8 8 7
8 8 8 7 8 9 11 12 11 10 10 11 11 9 7 7 7 8 9 11 11 9 7 7 7 4 3 6 8 8 10 9 7 6 8 8 8 8 10 12 12 10 5 1 1 1 1 2 1 1 4 5 4 5 5 9 7 3 9 5 3 11 8 3 10 23 13 2 9 7 3 2 2 5 5 4 3 5 3 4 7 5 5 5 8 10 7 7
9 9 9 8 9 9 10 11 12 12 10 11 11 11 9 8 7 8 9 10 11 11 9 7 8 7 4 3 6 8 8 9 10 7 6 8 9 8 8 9 11 13 12 8 3 1 1 1 2 1 3 6 3 3 -0 2 6 5 8 3 -2 6 8 3 5 10 8 6 5 2 2 1 7 12 8 2 4 5 2 7 10 5 3 4 9 11 8 9
9 9 9 10 10 9 10 11 12 12 12 11 11 11 11 9 8 7 8 10 11 11 11 10 8 8 7 5 4 6 8 8 10 10 8 6 7 9 8 8 8 8 11 13 9 5 4 3 5 5 4 5 3 2 1 -1 3 6 7 3 -3 -2 3 4 5 5 6 9 7 3 2 3 8 15 12 4 4 5 5 9 9 3 1 5 11 10 8 8
8 8 9 9 10 11 12 13 13 13 13 13 12 11 11 11 10 8 7 9 11 10 10 11 10 8 7 7 5 4 6 7 8 10 10 8 5 6 8 9 9 7 7 10 13 12 9 8 8 7 4 4 3 2 5 4 1 4 5 2 0 -1 1 3 5 5 4 6 9 6 5 8 9 11 12 8 7 7 6 7 4 4 2 2 11 14 9 6
8 8 8 9 10 11 12 13 15 15 14 14 14 13 12 11 11 10 7 7 10 11 10 10 11 10 8 7 7 5 5 5 8 9 10 11 8 6 6 8 9 9 8 7 9 10 9 8 7 5 3 4 7 5 7 8 5 6 4 0 2 3 3 2 3 7 4 0 2 4 6 8 8 11 17 15 10 7 5 4 1 5 3 -2 8 15 10 8
8 8 8 8 10 11 13 14 14 16 15 14 14 14 14 13 12 12 10 7 7 10 12 11 11 11 10 8 7 7 6 3 6 9 8 10 10 9 6 6 8 9 10 9 7 6 5 5 5 5 6 6 7 7 5 6 7 9 7 3 1 2 5 2 2 7 7 3 1 2 3 4 3 6 17 19 10 5 5 4 4 8 3 -2 7 14 10 8
8 8 8 9 10 11 13 14 15 16 16 15 14 13 15 15 14 13 12 10 8 8 11 12 11 11 10 10 7 7 9 6 4 7 8 7 9 10 8 6 7 7 9 11 9 7 5 4 5 6 8 6 4 4 5 6 7 11 11 7 -0 -4 2 4 3 6 7 6 5 3 3 4 2 2 11 20 14 6 2 1 7 9 2 -1 6 13 10 4
9 9 10 10 11 12 13 14 15 16 17 17 15 13 13 14 15 15 14 13 10 9 10 12 12 10 10 11 10 8 8 8 7 7 8 8 8 9 9 7 6 6 7 9 10 9 7 5 4 5 6 6 6 5 6 7 9 14 13 9 6 -3 -1 5 2 4 6 5 5 2 3 3 2 4 9 21 22 8 -0 2 6 6 1 1 7 9 7 6
9 10 11 11 12 13 13 14 15 16 16 16 15 14 13 13 13 14 14 14 13 12 10 13 13 10 10 10 11 11 7 7 9 8 6 7 8 7 10 9 7 6 6 7 10 11 10 8 5 4 5 5 8 9 7 6 7 14 14 13 18 6 -2 4 0 1 3 3 2 -1 3 3 -1 2 10 26 30 10 1 7 4 -0 3 4 5 7 6 7
11 12 12 13 13 13 14 14 14 15 15 14 14 14 13 13 12 12 13 13 13 13 12 14 14 12 11 9 11 13 9 5 9 11 6 5 7 6 8 9 9 7 6 6 7 9 11 11 9 6 5 4 6 7 6 6 6 11 12 11 22 12 -4 1 2 2 1 1 3 0 2 4 -0 -2 11 34 33 10 2 9 1 -6 5 7 1 7 9 7
12 13 14 13 14 13 14 14 14 14 14 14 13 13 13 13 12 11 12 12 12 13 13 14 15 13 12 11 11 12 11 5 7 13 10 6 6 6 7 7 9 8 7 6 5 7 9 10 11 10 9 4 4 6 4 5 6 9 10 10 20 14 -0 1 3 3 2 1 4 5 4 5 6 0 12 33 23 7 6 9 3 -8 2 8 -1 6 10 7
13 14 14 14 14 13 13 13 13 14 13 14 13 13 14 12 13 12 11 12 11 11 12 14 16 14 13 13 12 11 11 7 4 10 11 8 6 7 8 8 9 10 8 6 5 6 6 9 10 11 15 8 3 5 5 6 4 5 5 5 18 20 11 6 3 6 6 4 6 9 7 6 9 3 15 32 14 3 10 9 6 -2 1 5 0 7 10 6
14 14 15 14 13 13 13 13 14 14 14 15 15 15 15 14 13 12 12 13 12 12 12 14 15 14 13 13 12 12 11 9 5 7 10 8 6 7 7 7 8 9 9 7 6 6 5 7 8 10 16 13 7 3 3 6 3 4 4 3 13 16 16 15 6 6 8 5 8 10 9 9 11 4 9 28 20 7 8 8 5 -0 2 4 2 7 7 6
14 15 15 13 13 12 13 14 15 16 17 17 18 18 18 19 18 16 16 15 15 16 16 14 14 14 15 14 14 13 11 11 9 9 11 9 8 6 6 6 6 7 9 9 8 8 5 5 6 10 13 13 13 8 6 7 3 7 8 4 6 -0 7 20 10 3 2 -1 5 8 9 10 12 6 -0 14 27 19 10 9 3 -1 4 5 4 7 6 6
14 14 14 13 12 13 16 17 18 17 17 17 17 18 18 19 21 20 19 17 17 19 19 15 13 13 14 14 15 14 11 11 10 12 12 10 10 9 6 6 6 6 7 9 10 9 8 6 5 8 10 11 17 15 9 8 4 6 5 1 3 -3 0 12 10 6 0 -4 3 5 6 11 11 8 -0 -0 16 24 19 13 5 3 7 4 2 6 6 5
13 14 13 12 13 16 18 18 17 15 14 15 14 15 16 16 17 18 19 20 20 21 21 18 16 16 14 13 13 13 14 11 9 12 12 11 11 11 9 6 6 8 7 8 8 8 9 8 4 5 7 8 13 16 11 8 6 5 4 0 1 4 2 1 6 9 1 -3 5 2 1 11 11 8 5 -2 2 17 25 17 8 7 7 2 3 5 7 5
13 13 11 12 15 17 17 14 13 12 11 12 13 14 16 16 16 17 18 20 20 20 22 20 18 18 18 18 13 10 15 14 10 12 13 12 12 11 10 6 5 7 7 7 5 7 10 9 6 3 5 7 8 12 11 7 7 7 10 7 1 3 1 -2 3 6 1 -1 2 1 2 9 12 10 9 5 -2 6 22 22 13 11 8 4 3 3 6 6
12 11 10 14 17 15 13 12 10 10 10 10 12 15 17 17 17 16 17 18 20 21 22 21 18 16 17 20 17 12 15 16 13 13 12 12 13 13 11 8 6 5 5 7 6 7 10 12 12 6 4 7 8 11 11 7 6 8 10 8 6 3 -1 2 4 -0 -0 3 3 8 10 7 7 10 10 9 1 -2 9 16 14 8 6 7 6 4 6 6
11 10 11 16 16 12 11 10 7 7 8 9 13 17 17 17 17 17 17 17 20 23 24 22 17 16 17 17 17 15 15 18 14 12 12 11 13 14 13 10 8 7 6 6 7 6 8 12 12 10 7 6 8 8 10 12 9 10 13 11 10 6 1 -0 -2 3 6 3 7 16 15 6 3 8 12 12 8 2 -1 5 13 7 3 4 3 6 7 5
10 10 13 16 13 11 10 8 7 7 8 12 16 18 19 19 18 16 17 19 22 25 23 21 18 18 19 16 17 15 15 20 20 17 14 10 12 14 14 14 10 9 8 7 9 4 6 11 10 11 9 6 9 5 8 16 11 13 18 12 8 7 5 -6 -9 6 5 -5 6 17 13 10 8 10 12 10 9 12 6 0 7 12 15 13 -2 3 12 5
9 10 14 15 11 10 9 8 10 8 9 15 16 18 20 18 16 19 24 22 22 29 24 16 15 17 18 15 17 18 14 17 20 22 21 12 12 15 12 15 14 12 11 9 10 5 4 10 11 12 10 7 9 5 10 13 10 19 18 6 10 10 4 -1 1 6 -8 -12 11 21 15 15 18 15 13 9 2 9 15 5 4 10 22 28 8 -0 10 8
8 11 14 14 10 9 8 9 11 6 7 16 16 18 23 24 23 27 31 21 18 31 30 21 19 18 17 19 23 23 17 18 17 20 27 17 11 15 13 15 14 10 11 9 6 6 5 8 11 11 11 10 5 5 11 8 14 26 8 -3 13 11 3 8 13 8 -8 -8 4 7 12 14 12 11 10 12 4 4 15 8 5 6 9 30 32 12 5 7
7 11 13 12 8 7 7 8 10 5 8 18 16 16 24 28 22 15 18 14 9 19 21 18 23 21 17 20 24 19 14 19 20 19 24 20 12 12 11 17 18 8 8 8 3 5 6 7 11 13 13 11 7 7 8 9 27 27 -3 -3 11 4 10 16 8 2 -3 1 -0 -6 8 13 7 7 6 11 9 6 14 9 5 6 0 15 32 25 10 5
7 10 12 11 7 7 5 6 9 6 8 18 17 14 19 20 11 2 6 5 2 12 16 10 17 24 19 16 19 19 15 12 13 15 17 18 18 13 7 13 19 14 10 9 6 6 5 4 7 12 16 15 12 9 3 11 30 14 -12 4 10 -7 1 9 5 7 2 4 6 -2 0 8 13 12 0 3 11 10 15 14 8 7 5 6 12 18 20 15
7 10 11 9 7 7 6 7 9 7 9 20 21 15 15 11 3 4 10 8 7 14 17 10 15 27 23 15 16 18 18 13 12 18 20 19 20 16 11 11 15 17 14 9 7 8 7 4 3 7 13 16 15 8 5 19 27 3 -13 3 8 -7 -7 1 7 11 8 7 9 4 -3 0 14 15 -2 -3 10 13 16 21 16 8 8 11 9 9 15 20
7 10 10 8 7 7 7 9 10 9 13 24 20 12 13 5 -0 10 10 6 7 4 2 5 15 28 27 21 19 13 14 16 13 12 15 20 23 17 12 11 13 16 15 12 11 15 17 10 6 7 7 13 18 9 8 26 24 -2 -12 -1 5 -2 -7 1 6 2 7 14 11 6 1 -0 10 12 3 -0 3 8 11 14 14 11 8 11 13 11 9 10
6 8 9 8 7 8 9 10 11 11 13 21 16 9 12 6 -0 8 4 -2 5 5 2 1 8 28 35 26 16 9 11 17 15 14 16 19 25 22 13 10 12 14 19 22 16 15 19 16 13 12 9 10 15 11 9 20 20 -2 -11 -3 3 -0 -8 -3 5 -1 0 12 13 7 3 7 10 2 1 4 -1 0 5 3 4 8 9 9 11 13 13 8
6 6 7 8 8 10 10 9 12 14 12 18 17 7 6 6 2 9 13 10 9 7 3 -1 5 25 36 27 11 8 15 13 9 15 21 20 21 21 15 12 13 16 23 28 22 16 14 17 16 9 11 15 12 15 16 14 16 3 -8 -3 -0 -1 -5 -3 9 6 -5 2 12 9 4 10 10 -4 -5 5 1 -3 0 4 5 4 3 6 8 10 13 11
9 5 4 8 9 10 10 9 14 16 11 13 19 12 4 5 8 11 20 16 5 5 5 5 13 14 18 24 14 9 15 9 4 13 25 30 27 20 16 13 12 17 22 20 18 19 11 13 17 4 6 15 9 13 22 17 14 5 -2 -1 -3 -2 -4 -1 15 14 -4 -5 6 9 7 7 6 -3 -7 -1 1 -4 -4 5 9 5 4 5 6 8 12 11
11 6 4 7 9 11 9 9 15 15 9 6 11 13 6 8 12 6 11 13 3 5 6 5 11 1 -1 12 7 0 4 8 17 20 19 29 32 24 17 13 11 15 22 13 6 13 6 4 18 13 5 11 9 12 24 24 14 4 4 1 -4 -0 -1 -2 14 16 -3 -9 1 9 8 5 4 3 1 1 -0 -5 -4 4 6 4 7 7 5 9 11 9
11 7 4 5 8 12 8 9 15 13 9 6 6 12 11 16 21 7 10 20 3 -4 3 6 6 3 3 4 0 3 6 6 11 7 3 12 24 26 18 12 10 9 17 13 2 6 5 -1 11 18 12 8 7 8 17 28 22 3 -1 0 -3 1 1 -2 10 17 3 -8 1 9 7 4 2 2 6 6 4 2 1 5 5 4 6 5 5 9 10 11
11 7 6 6 7 10 6 9 15 11 9 6 5 15 12 11 21 13 15 23 4 -1 15 13 4 7 8 4 6 11 8 5 -1 -7 4 9 11 24 20 10 8 4 9 11 1 3 4 1 7 16 18 11 8 13 13 23 32 12 -7 -3 1 1 2 -1 3 16 15 3 5 8 4 2 0 -2 1 2 6 11 7 6 4 2 6 5 0 1 5 10
11 9 8 7 8 10 8 9 11 9 11 7 6 16 12 7 15 17 21 21 7 15 24 7 -1 5 1 2 17 13 -2 9 10 -6 4 9 7 20 19 12 11 5 7 9 3 6 2 -2 4 10 17 13 10 23 20 14 30 25 3 -0 3 3 8 3 -4 11 19 3 -1 7 7 2 -3 -3 -0 -2 4 16 19 20 12 1 2 2 -2 0 4 6
9 11 10 7 8 11 8 9 10 9 11 12 11 11 6 8 11 12 22 19 12 27 21 -6 -4 8 -2 -3 22 20 -6 7 21 2 1 11 14 19 13 14 16 5 9 12 8 11 1 -9 0 4 8 11 10 22 23 14 22 27 14 8 5 3 12 9 -8 -2 13 5 -5 -1 4 4 -1 -1 4 -0 -2 8 16 18 12 4 1 -1 1 6 5 4
9 12 12 6 6 10 8 5 8 9 9 11 13 10 4 9 10 8 20 21 15 25 19 0 0 8 5 -2 10 18 -0 3 18 3 -0 11 12 14 14 15 13 2 8 15 10 14 6 -9 -2 4 1 7 14 17 19 19 21 22 18 13 5 -3 6 17 4 -4 9 15 11 6 1 1 0 -3 5 8 -1 1 6 1 -3 3 5 4 7 10 8 5
10 12 12 5 4 13 13 6 7 12 11 7 9 12 8 8 8 5 13 16 13 20 26 23 13 2 9 15 13 10 -2 7 18 -5 -7 14 12 7 12 14 11 4 7 14 9 14 14 -4 -6 3 1 3 10 10 11 15 14 16 20 18 10 -3 -6 9 12 8 11 8 14 20 10 7 11 4 7 13 10 14 18 6 -2 0 4 7 9 9 12 11
9 13 13 5 3 13 15 9 10 11 10 9 8 10 10 8 6 4 8 11 11 17 22 28 28 10 5 14 15 8 0 12 17 -12 -18 10 18 12 10 11 17 13 5 8 9 14 18 3 -6 4 4 4 16 20 13 11 10 16 21 18 16 10 3 6 6 9 12 1 3 17 10 7 13 8 8 12 15 28 34 26 17 3 -5 2 7 7 9 12
6 12 14 7 2 11 11 9 12 8 6 10 6 5 10 11 9 7 9 10 9 15 15 19 31 25 17 18 11 6 9 12 12 -2 -16 -6 15 23 13 6 16 17 7 3 5 13 19 6 -2 9 10 6 21 29 15 4 5 13 19 15 13 11 9 13 7 3 8 2 -2 7 7 6 5 2 6 6 8 16 9 12 28 17 -1 4 10 9 6 8
4 10 14 9 3 7 8 6 12 10 7 10 7 7 9 9 11 13 11 9 8 11 13 14 16 11 22 43 34 15 14 10 11 14 -2 -11 9 24 15 8 13 15 12 8 6 9 13 8 -0 5 9 6 14 22 11 2 -0 2 8 10 10 7 3 8 8 0 4 6 1 1 4 5 1 1 8 4 3 4 -19 -22 10 18 7 10 13 13 8 3
4 9 14 12 5 5 7 8 11 11 10 9 8 12 10 2 7 13 10 10 13 10 7 13 15 6 13 37 37 20 14 13 19 23 5 -9 6 17 14 14 18 16 9 8 13 7 1 11 13 5 3 6 15 18 7 3 5 4 6 7 9 10 5 7 9 0 -4 2 6 7 7 5 -2 -3 6 2 -0 8 -1 -7 9 12 6 9 12 17 15 5
2 8 11 13 10 6 6 7 9 10 10 8 6 12 16 6 3 8 8 8 15 15 7 5 10 12 15 21 21 14 8 10 20 29 21 11 13 17 16 14 18 22 11 3 13 11 -1 9 17 9 6 10 20 24 9 -0 3 5 7 7 9 13 7 2 8 5 -3 -4 4 11 8 3 -1 -4 4 6 -1 2 4 6 18 17 5 2 4 11 16 12
3 6 7 10 12 9 7 6 7 10 11 10 8 9 14 13 6 5 7 7 10 16 16 11 7 10 15 17 17 17 13 9 9 17 27 28 22 19 21 19 18 23 17 3 6 12 9 9 10 13 17 9 9 20 13 -1 -4 -1 6 11 13 18 16 9 11 11 3 -2 4 13 8 1 -0 -2 5 15 13 10 3 -3 8 16 7 -1 -1 3 9 13
3 6 7 9 9 7 8 7 5 8 10 11 11 8 10 14 12 6 7 10 9 8 13 20 20 13 9 11 17 17 15 15 11 4 7 17 21 18 19 24 25 25 24 13 7 10 12 9 4 12 23 15 11 22 19 7 -1 -7 -2 8 9 10 11 11 16 18 10 3 5 10 9 3 -1 -5 -2 7 11 14 8 -5 -5 7 10 6 1 1 4 6
3 4 5 8 9 6 6 7 4 6 10 11 13 11 8 10 11 7 6 10 12 8 6 14 22 17 5 4 15 15 7 12 18 9 -1 3 13 16 16 20 25 29 30 20 9 7 11 10 1 -3 5 15 21 21 12 12 15 5 -4 -1 3 7 1 -7 8 22 14 6 8 9 6 5 1 -8 -10 -5 -0 6 10 2 -6 0 11 12 6 4 4 4
3 6 5 5 8 7 5 4 4 6 9 10 13 14 10 9 10 8 6 8 13 12 7 7 18 26 16 3 9 16 11 11 14 9 4 6 9 12 14 16 19 23 30 27 14 4 5 11 9 0 -1 8 18 16 8 12 22 21 12 4 3 12 4 -15 -2 20 16 5 10 12 7 5 4 -2 -6 -5 -1 4 8 8 1 -3 5 12 10 7 7 6
2 6 6 3 4 10 11 7 4 7 8 7 9 12 12 11 11 10 7 6 9 14 12 5 9 26 31 13 4 11 15 16 14 9 6 7 9 10 9 9 11 14 20 27 25 14 8 8 11 14 13 8 7 8 7 8 12 15 20 18 12 12 7 -7 -6 9 11 7 10 13 10 7 5 4 3 1 3 5 6 9 7 -1 2 12 15 13 13 12
5 4 5 3 2 7 13 10 6 5 5 6 8 9 10 12 11 12 11 9 6 8 14 12 6 17 35 25 5 3 11 13 15 16 13 9 9 13 10 6 10 14 15 19 22 22 20 13 10 14 18 12 5 0 -2 -1 2 5 11 19 22 13 1 -3 0 4 7 7 5 4 7 9 7 6 7 5 4 6 8 10 12 6 -1 2 9 15 18 17
Height
5871 5870 5869 5869 5868 5867 5866 5866 5865 5865 5865 5865 5865 5865 5865 5865 5865 5866 5866 5867 5867 5868 5869 5869 5870 5871 5872 5873 5874 5875 5877 5878 5880 5881 5882 5884 5885 5886 5887 5889 5890 5892 5894 5895 5896 5898 5899 5900 5901 5902 5904 5904 5905 5907 5908 5909 5909 5909 5910 5910 5909 5909 5908 5907 5907 5906 5906 5907 5908 5909 5911 5911 5911 5913 5913 5914 5916 5916 5917 5918 5918 5918 5919 5919 5919 5920 5922 5924
5868 5867 5867 5866 5865 5864 5864 5863 5862 5862 5862 5861 5861 5862 5862 5862 5862 5863 5863 5864 5864 5865 5866 5867 5868 5869 5870 5871 5872 5873 5874 5876 5877 5878 5880 5882 5882 5884 5886 5888 5889 5890 5892 5894 5895 5896 5898 5899 5900 5901 5902 5904 5905 5906 5907 5908 5908 5908 5909 5910 5909 5909 5908 5907 5907 5907 5907 5908 5909 5910 5911 5911 5911 5912 5913 5915 5916 5916 5917 5918 5919 5919 5919 5920 5920 5921 5923 5924
5866 5865 5864 5863 5862 5861 5860 5860 5859 5859 5858 5858 5858 5858 5858 5858 5859 5859 5860 5861 5862 5862 5863 5864 5865 5866 5867 5868 5869 5870 5872 5873 5874 5875 5877 5879 5880 5882 5884 5886 5887 5889 5890 5892 5893 5895 5897 5898 5899 5900 5901 5903 5904 5905 5906 5907 5907 5908 5909 5909 5909 5908 5908 5908 5908 5908 5908 5909 5910 5911 5911 5911 5911 5912 5913 5915 5915 5917 5918 5918 5919 5920 5920 5920 5920 5921 5923 5924
5863 5862 5860 5860 5859 5858 5857 5856 5856 5855 5855 5855 5854 5854 5854 5854 5855 5855 5856 5858 5858 5859 5860 5861 5862 5863 5864 5865 5866 5868 5869 5870 5871 5873 5875 5876 5878 5879 5881 5883 5885 5887 5889 5890 5892 5894 5895 5897 5898 5899 5900 5902 5903 5904 5905 5906 5907 5908 5908 5909 5909 5908 5908 5908 5908 5908 5908 5909 5910 5910 5911 5911 5911 5912 5914 5915 5916 5917 5918 5918 5920 5921 5921 5921 5921 5922 5923 5924
5860 5858 5857 5856 5855 5854 5854 5853 5852 5852 5851 5851 5851 5850 5850 5850 5850 5851 5852 5854 5855 5855 5856 5857 5859 5860 5861 5862 5863 5865 5867 5868 5869 5870 5872 5873 5875 5876 5878 5880 5882 5885 5887 5888 5890 5892 5894 5895 5896 5898 5899 5900 5901 5902 5904 5905 5906 5907 5908 5908 5908 5908 5908 5909 5909 5908 5908 5909 5910 5910 5911 5912 5912 5913 5914 5916 5917 5917 5918 5918 5920 5921 5922 5922 5922 5922 5922 5924
5857 5855 5854 5853 5852 5851 5850 5849 5848 5848 5847 5847 5847 5846 5846 5846 5846 5847 5848 5849 5851 5851 5852 5853 5855 5857 5858 5858 5860 5862 5863 5865 5866 5867 5868 5870 5872 5874 5875 5877 5880 5882 5884 5886 5888 5890 5891 5893 5895 5897 5898 5899 5899 5901 5902 5904 5905 5906 5907 5908 5908 5908 5908 5909 5910 5909 5909 5909 5910 5910 5911 5912 5913 5913 5915 5916 5917 5917 5917 5918 5920 5921 5922 5923 5923 5922 5922 5923
5854 5852 5851 5849 5848 5847 5846 5845 5844 5843 5843 5842 5842 5842 5841 5842 5842 5842 5843 5845 5846 5847 5848 5849 5852 5853 5854 5855 5857 5858 5860 5862 5863 5864 5866 5868 5869 5871 5873 5875 5878 5880 5881 5883 5885 5887 5889 5891 5893 5895 5896 5896 5898 5899 5900 5901 5903 5905 5906 5906 5907 5907 5908 5909 5911 5911 5910 5910 5910 5910 5911 5912 5913 5914 5914 5915 5916 5917 5917 5919 5920 5920 5922 5923 5923 5923 5922 5923
5851 5849 5847 5846 5844 5843 5841 5841 5840 5839 5838 5838 5838 5837 5837 5837 5837 5838 5839 5840 5842 5843 5843 5845 5847 5849 5851 5852 5853 5855 5856 5858 5860 5861 5863 5865 5866 5868 5870 5872 5875 5877 5878 5880 5883 5885 5887 5889 5891 5893 5893 5894 5896 5897 5899 5901 5902 5904 5904 5905 5906 5907 5907 5909 5911 5911 5911 5910 5911 5911 5911 5912 5913 5914 5914 5915 5916 5917 5918 5919 5920 5920 5921 5923 5924 5923 5923 5923
5847 5845 5843 5842 5840 5839 5837 5836 5835 5834 5833 5833 5833 5832 5832 5832 5833 5833 5834 5835 5837 5838 5839 5840 5843 5845 5847 5848 5850 5851 5853 5855 5856 5858 5860 5862 5863 5865 5867 5869 5872 5874 5875 5878 5880 5883 5885 5887 5889 5890 5890 5892 5894 5897 5899 5900 5901 5902 5902 5904 5905 5906 5907 5908 5910 5911 5911 5910 5911 5911 5911 5911 5912 5913 5914 5914 5915 5916 5918 5919 5920 5921 5921 5922 5924 5924 5924 5924
5843 5841 5839 5837 5836 5834 5833 5832 5831 5829 5828 5828 5828 5827 5827 5827 5827 5828 5829 5830 5831 5833 5834 5836 5838 5840 5842 5844 5846 5847 5849 5852 5853 5855 5856 5859 5861 5862 5864 5866 5869 5871 5873 5875 5878 5881 5883 5885 5886 5886 5888 5891 5894 5895 5896 5897 5899 5901 5901 5902 5904 5905 5906 5907 5909 5911 5911 5910 5911 5911 5911 5912 5912 5913 5913 5914 5916 5917 5918 5919 5920 5921 5921 5922 5924 5924 5924 5925
5839 5837 5835 5833 5832 5830 5829 5827 5826 5825 5824 5823 5823 5822 5822 5822 5822 5823 5824 5825 5826 5828 5829 5831 5834 5836 5838 5840 5842 5843 5845 5848 5850 5851 5852 5855 5857 5859 5862 5864 5866 5868 5870 5873 5875 5878 5880 5881 5882 5884 5886 5889 5891 5893 5894 5895 5897 5900 5901 5902 5903 5905 5906 5907 5908 5910 5910 5911 5911 5911 5911 5912 5912 5912 5913 5914 5916 5917 5918 5919 5920 5921 5922 5923 5924 5925 5925 5925
5836 5833 5831 5829 5827 5826 5824 5823 5821 5820 5819 5819 5818 5817 5817 5817 5817 5818 5819 5820 5821 5823 5825 5827 5829 5831 5833 5835 5836 5839 5842 5844 5846 5848 5849 5851 5854 5856 5858 5861 5863 5865 5868 5870 5872 5875 5877 5878 5880 5882 5885 5887 5888 5890 5892 5893 5894 5898 5900 5901 5902 5903 5904 5906 5908 5909 5909 5910 5911 5911 5911 5911 5912 5912 5912 5913 5915 5916 5917 5918 5919 5920 5922 5923 5924 5925 5925 5925
5832 5829 5827 5825 5823 5821 5820 5818 5817 5816 5815 5814 5814 5813 5813 5812 5813 5813 5814 5815 5816 5818 5820 5822 5824 5827 5829 5830 5832 5836 5839 5841 5843 5845 5846 5848 5850 5853 5855 5857 5860 5862 5865 5866 5868 5871 5873 5875 5877 5880 5883 5884 5886 5889 5890 5891 5892 5896 5899 5900 5901 5902 5903 5905 5907 5907 5908 5909 5910 5911 5911 5911 5912 5911 5911 5912 5914 5915 5917 5918 5919 5920 5921 5923 5924 5925 5926 5926
5828 5825 5823 5821 5819 5817 5815 5814 5813 5811 5810 5810 5809 5809 5808 5808 5808 5809 5809 5811 5812 5813 5815 5817 5820 5822 5824 5825 5828 5832 5836 5838 5839 5840 5843 5844 5846 5849 5852 5854 5857 5859 5862 5864 5866 5868 5871 5873 5875 5878 5880 5883 5887 5888 5888 5889 5891 5893 5897 5899 5901 5901 5902 5903 5905 5906 5907 5909 5909 5910 5911 5911 5911 5911 5910 5911 5912 5915 5916 5917 5918 5920 5921 5923 5924 5926 5926 5926
5823 5821 5819 5816 5814 5812 5811 5810 5808 5807 5806 5805 5805 5804 5804 5804 5804 5804 5805 5806 5807 5809 5811 5813 5815 5817 5819 5821 5823 5828 5831 5834 5834 5836 5839 5841 5843 5846 5848 5851 5853 5856 5859 5861 5863 5865 5868 5870 5873 5877 5880 5883 5886 5886 5887 5889 5890 5891 5895 5898 5899 5899 5900 5902 5904 5905 5907 5908 5909 5909 5910 5911 5911 5911 5910 5910 5912 5914 5915 5916 5918 5920 5921 5922 5924 5926 5926 5927
5819 5817 5815 5812 5810 5808 5807 5806 5804 5803 5802 5801 5800 5800 5800 5800 5800 5800 5800 5801 5802 5804 5806 5808 5809 5812 5814 5816 5819 5822 5825 5828 5830 5832 5835 5837 5840 5842 5845 5847 5850 5853 5855 5857 5860 5862 5864 5867 5871 5875 5878 5882 5883 5884 5886 5888 5889 5890 5894 5896 5897 5898 5900 5902 5904 5905 5906 5907 5907 5909 5909 5910 5910 5911 5910 5911 5912 5913 5914 5916 5918 5919 5920 5922 5924 5926 5926 5927
5815 5813 5811 5808 5806 5805 5803 5802 5800 5799 5798 5797 5796 5796 5796 5796 5795 5796 5796 5797 5798 5799 5801 5802 5804 5806 5808 5811 5814 5816 5818 5822 5825 5827 5830 5833 5836 5839 5841 5844 5847 5849 5852 5854 5857 5859 5862 5865 5868 5872 5876 5879 5880 5881 5883 5885 5887 5890 5892 5893 5896 5898 5899 5901 5902 5903 5905 5905 5906 5908 5908 5909 5909 5910 5910 5911 5912 5913 5914 5916 5917 5918 5920 5922 5924 5925 5926 5926
5812 5809 5807 5805 5803 5801 5800 5798 5796 5795 5794 5793 5792 5792 5791 5791 5791 5791 5791 5792 5793 5795 5796 5797 5800 5801 5803 5806 5809 5811 5814 5818 5820 5823 5825 5828 5832 5835 5838 5840 5843 5846 5848 5851 5854 5857 5860 5863 5866 5869 5872 5875 5877 5879 5882 5885 5887 5890 5891 5892 5895 5898 5899 5900 5901 5902 5903 5904 5905 5906 5907 5908 5909 5910 5910 5911 5911 5913 5914 5915 5917 5918 5919 5921 5923 5925 5926 5926
5808 5806 5804 5802 5800 5798 5796 5795 5793 5791 5790 5789 5788 5788 5787 5787 5787 5787 5787 5788 5789 5791 5792 5793 5795 5796 5798 5802 5804 5807 5811 5814 5817 5819 5821 5824 5828 5831 5834 5836 5839 5842 5845 5849 5851 5855 5858 5861 5864 5867 5870 5873 5875 5878 5882 5884 5887 5889 5890 5890 5892 5896 5898 5899 5899 5900 5901 5902 5904 5905 5906 5907 5908 5909 5910 5910 5911 5912 5914 5914 5916 5918 5919 5920 5923 5924 5925 5925
5805 5803 5801 5799 5797 5795 5793 5792 5790 5789 5787 5786 5785 5784 5784 5784 5783 5783 5783 5784 5785 5786 5787 5788 5790 5791 5794 5797 5800 5803 5806 5809 5813 5815 5818 5821 5824 5828 5830 5833 5836 5839 5843 5846 5849 5852 5856 5859 5862 5866 5868 5871 5874 5877 5879 5881 5883 5884 5885 5885 5888 5891 5894 5897 5899 5899 5900 5901 5903 5904 5905 5906 5907 5908 5909 5910 5911 5912 5913 5914 5915 5917 5918 5920 5922 5923 5924 5925
5802 5800 5798 5796 5794 5793 5791 5789 5788 5786 5785 5783 5782 5782 5781 5780 5780 5779 5780 5780 5781 5781 5782 5784 5786 5788 5791 5793 5797 5799 5802 5805 5808 5810 5814 5818 5820 5824 5827 5830 5833 5837 5841 5843 5845 5849 5853 5856 5861 5864 5866 5868 5872 5874 5875 5877 5879 5881 5883 5884 5886 5887 5890 5894 5896 5898 5899 5900 5902 5903 5904 5905 5906 5907 5908 5909 5910 5911 5912 5913 5914 5916 5917 5919 5920 5922 5923 5924
5800 5798 5796 5794 5792 5790 5789 5787 5786 5784 5783 5781 5780 5779 5778 5777 5777 5776 5776 5776 5777 5777 5778 5780 5782 5785 5788 5790 5793 5796 5798 5801 5804 5807 5811 5814 5817 5820 5823 5827 5831 5834 5838 5840 5842 5846 5850 5854 5859 5861 5863 5866 5868 5870 5872 5874 5876 5879 5883 5885 5885 5886 5888 5890 5892 5895 5898 5899 5901 5901 5902 5904 5905 5906 5907 5908 5910 5910 5911 5912 5913 5914 5916 5918 5919 5921 5922 5924
5798 5796 5794 5792 5790 5788 5787 5786 5784 5782 5780 5779 5778 5777 5775 5775 5774 5773 5773 5773 5774 5774 5775 5777 5778 5781 5784 5786 5790 5793 5795 5798 5801 5804 5808 5810 5813 5817 5820 5824 5828 5831 5834 5837 5840 5844 5849 5853 5856 5858 5860 5863 5865 5867 5869 5871 5874 5878 5881 5883 5884 5884 5886 5889 5891 5894 5896 5898 5899 5900 5901 5902 5904 5905 5907 5907 5909 5909 5910 5911 5912 5913 5915 5916 5918 5919 5921 5923
5796 5794 5792 5790 5788 5787 5786 5784 5783 5781 5779 5777 5775 5774 5773 5772 5771 5770 5770 5771 5771 5772 5773 5774 5775 5778 5780 5783 5786 5789 5791 5795 5798 5801 5804 5807 5810 5813 5816 5820 5824 5827 5831 5834 5837 5842 5847 5850 5852 5855 5858 5862 5864 5864 5866 5869 5873 5876 5879 5880 5881 5883 5886 5889 5892 5893 5894 5896 5898 5899 5901 5902 5902 5904 5905 5906 5907 5908 5909 5910 5911 5912 5914 5915 5917 5918 5920 5922
5794 5792 5790 5789 5787 5786 5784 5783 5781 5779 5777 5775 5773 5771 5770 5769 5768 5768 5769 5769 5769 5770 5771 5772 5773 5776 5778 5780 5782 5785 5789 5792 5795 5798 5801 5803 5807 5810 5813 5817 5821 5825 5828 5831 5834 5838 5843 5846 5848 5852 5855 5859 5862 5863 5865 5868 5872 5875 5877 5878 5879 5881 5884 5886 5888 5889 5891 5895 5897 5898 5900 5900 5902 5903 5904 5905 5906 5907 5908 5909 5911 5912 5913 5914 5915 5917 5919 5921
5793 5791 5789 5787 5786 5784 5783 5782 5780 5778 5775 5773 5771 5770 5769 5768 5768 5768 5768 5768 5769 5770 5770 5771 5772 5774 5775 5777 5779 5782 5787 5789 5791 5795 5797 5801 5804 5807 5810 5814 5818 5822 5825 5828 5831 5835 5839 5843 5846 5849 5852 5856 5859 5861 5864 5867 5870 5874 5876 5876 5877 5880 5883 5884 5884 5886 5889 5894 5895 5896 5898 5899 5901 5902 5903 5904 5905 5906 5906 5908 5910 5911 5912 5912 5914 5915 5918 5920
5791 5790 5788 5786 5785 5783 5782 5780 5779 5777 5775 5773 5771 5770 5769 5768 5768 5768 5768 5769 5769 5770 5770 5771 5772 5772 5774 5776 5778 5780 5783 5786 5789 5791 5794 5798 5801 5804 5808 5811 5814 5818 5821 5823 5827 5832 5836 5840 5843 5846 5849 5853 5856 5860 5863 5866 5869 5872 5874 5875 5877 5879 5881 5882 5884 5887 5889 5891 5892 5894 5896 5897 5899 5901 5902 5903 5904 5905 5905 5907 5909 5910 5910 5911 5911 5914 5916 5919
5790 5788 5787 5785 5784 5782 5781 5780 5778 5776 5775 5773 5771 5770 5770 5768 5767 5768 5768 5769 5770 5770 5771 5771 5772 5772 5774 5776 5777 5778 5780 5783 5786 5788 5791 5795 5798 5802 5806 5808 5811 5814 5816 5820 5824 5830 5834 5837 5841 5844 5847 5850 5854 5858 5862 5865 5870 5872 5872 5874 5876 5878 5879 5879 5882 5886 5888 5889 5890 5892 5894 5896 5897 5899 5901 5902 5903 5903 5904 5906 5907 5908 5909 5910 5910 5912 5915 5917
5789 5788 5786 5785 5783 5781 5780 5779 5777 5776 5774 5773 5772 5771 5770 5768 5768 5769 5770 5770 5770 5770 5771 5771 5772 5772 5773 5775 5776 5777 5778 5781 5783 5786 5790 5793 5796 5800 5803 5806 5809 5812 5814 5818 5822 5826 5830 5834 5838 5841 5845 5849 5853 5856 5859 5865 5870 5870 5870 5873 5875 5876 5877 5878 5879 5882 5884 5886 5888 5890 5893 5895 5896 5898 5900 5900 5901 5902 5903 5905 5906 5907 5908 5909 5910 5912 5914 5916
5788 5787 5785 5784 5782 5781 5779 5778 5776 5775 5774 5772 5772 5772 5770 5769 5770 5770 5771 5771 5771 5771 5771 5771 5771 5772 5773 5774 5775 5776 5778 5780 5782 5785 5788 5790 5794 5797 5800 5804 5807 5810 5813 5816 5820 5823 5827 5831 5833 5837 5842 5847 5851 5853 5858 5866 5868 5867 5868 5871 5873 5875 5876 5876 5878 5880 5881 5883 5886 5888 5890 5892 5895 5897 5898 5899 5900 5901 5902 5903 5905 5906 5907 5908 5909 5911 5913 5915
5787 5786 5784 5783 5781 5780 5779 5777 5775 5774 5773 5772 5772 5772 5771 5770 5770 5771 5771 5771 5771 5772 5772 5771 5771 5772 5773 5774 5775 5776 5778 5780 5782 5785 5787 5789 5792 5795 5798 5802 5805 5808 5810 5815 5819 5821 5824 5827 5829 5834 5839 5844 5847 5850 5857 5865 5866 5865 5866 5868 5870 5873 5874 5875 5877 5878 5879 5880 5884 5887 5888 5890 5893 5895 5897 5898 5900 5901 5901 5903 5904 5905 5906 5907 5909 5910 5912 5914
5786 5785 5784 5782 5780 5779 5778 5776 5775 5774 5773 5773 5772 5772 5772 5771 5771 5771 5771 5771 5771 5772 5772 5772 5772 5772 5773 5775 5776 5777 5778 5780 5782 5785 5787 5788 5791 5794 5796 5799 5803 5806 5810 5814 5817 5820 5822 5824 5827 5831 5834 5839 5843 5847 5853 5859 5861 5862 5864 5866 5868 5870 5872 5874 5875 5877 5878 5880 5882 5885 5886 5887 5890 5893 5895 5896 5898 5899 5901 5902 5904 5905 5906 5907 5908 5910 5911 5913
5785 5784 5783 5782 5780 5779 5777 5776 5775 5774 5774 5773 5772 5772 5772 5772 5771 5771 5771 5770 5770 5772 5772 5771 5772 5773 5775 5776 5777 5777 5779 5781 5783 5785 5787 5788 5790 5793 5796 5799 5802 5805 5809 5812 5815 5818 5821 5823 5825 5828 5831 5836 5840 5844 5850 5853 5856 5860 5862 5863 5865 5867 5869 5871 5873 5875 5878 5880 5880 5882 5884 5885 5888 5891 5892 5893 5895 5896 5898 5901 5902 5904 5905 5906 5907 5909 5910 5912
5784 5783 5782 5781 5780 5778 5777 5776 5775 5774 5773 5773 5772 5772 5773 5772 5771 5770 5771 5771 5770 5771 5771 5771 5772 5775 5776 5777 5778 5779 5779 5782 5783 5785 5787 5789 5790 5793 5796 5799 5800 5803 5806 5809 5812 5815 5819 5822 5825 5826 5829 5833 5837 5842 5847 5850 5853 5857 5859 5860 5863 5864 5866 5869 5871 5874 5877 5879 5879 5879 5881 5882 5885 5889 5890 5892 5893 5894 5896 5898 5900 5902 5903 5905 5906 5907 5909 5911
5783 5783 5782 5781 5779 5778 5776 5775 5775 5774 5773 5773 5773 5773 5773 5772 5771 5770 5771 5771 5771 5772 5772 5772 5772 5774 5776 5777 5778 5779 5780 5781 5783 5785 5786 5787 5789 5791 5793 5795 5797 5800 5803 5806 5809 5812 5816 5820 5822 5824 5827 5831 5835 5839 5844 5849 5852 5854 5855 5857 5861 5863 5865 5868 5870 5873 5876 5878 5878 5878 5879 5879 5882 5886 5889 5891 5892 5893 5895 5896 5898 5900 5901 5903 5904 5905 5907 5908
5782 5782 5781 5780 5779 5777 5776 5775 5775 5774 5773 5773 5773 5773 5773 5771 5771 5770 5770 5771 5772 5773 5772 5772 5773 5773 5774 5776 5777 5778 5780 5781 5782 5784 5784 5785 5786 5788 5788 5790 5794 5798 5801 5803 5806 5809 5813 5817 5819 5822 5826 5829 5833 5836 5841 5846 5850 5851 5854 5857 5859 5861 5863 5866 5868 5871 5875 5876 5875 5876 5877 5878 5880 5884 5886 5889 5891 5893 5895 5896 5898 5899 5900 5902 5903 5905 5906 5907
5782 5781 5780 5779 5778 5777 5775 5775 5775 5774 5773 5773 5773 5773 5772 5771 5770 5770 5770 5771 5772 5773 5772 5773 5773 5773 5773 5775 5776 5778 5780 5780 5781 5781 5782 5782 5784 5785 5786 5788 5792 5796 5800 5802 5804 5807 5812 5815 5817 5820 5824 5827 5830 5834 5838 5843 5847 5850 5854 5856 5857 5859 5861 5863 5865 5868 5871 5872 5871 5873 5875 5876 5878 5881 5883 5886 5888 5890 5892 5894 5896 5897 5899 5902 5903 5905 5905 5905
5781 5780 5780 5778 5777 5776 5775 5775 5775 5773 5773 5773 5773 5773 5772 5771 5771 5769 5770 5771 5772 5772 5772 5772 5773 5773 5773 5774 5775 5777 5778 5777 5778 5779 5780 5780 5780 5782 5785 5788 5792 5796 5799 5802 5804 5808 5811 5814 5816 5818 5822 5826 5828 5831 5835 5839 5845 5849 5852 5852 5854 5857 5859 5861 5863 5865 5867 5868 5868 5871 5873 5874 5876 5878 5880 5883 5885 5887 5888 5890 5893 5896 5899 5900 5902 5902 5902 5902
5780 5780 5779 5778 5778 5777 5776 5775 5774 5773 5773 5773 5773 5772 5771 5771 5770 5769 5769 5770 5770 5771 5771 5772 5773 5773 5774 5774 5775 5776 5776 5775 5777 5779 5779 5779 5780 5781 5784 5787 5792 5795 5798 5801 5805 5809 5811 5813 5814 5817 5821 5824 5827 5829 5832 5836 5842 5846 5849 5850 5853 5855 5856 5859 5861 5862 5864 5865 5866 5869 5871 5872 5875 5877 5879 5881 5883 5884 5885 5887 5891 5894 5897 5898 5899 5899 5899 5901
5780 5779 5779 5778 5778 5777 5776 5775 5774 5773 5773 5773 5772 5771 5770 5770 5770 5769 5769 5769 5769 5770 5771 5772 5772 5773 5773 5774 5775 5775 5775 5775 5777 5779 5779 5780 5781 5784 5786 5789 5792 5794 5796 5800 5804 5807 5810 5812 5812 5814 5819 5823 5825 5827 5830 5835 5839 5842 5845 5848 5850 5852 5853 5856 5858 5860 5861 5862 5863 5866 5868 5870 5873 5875 5877 5878 5880 5882 5884 5887 5890 5893 5894 5896 5896 5897 5897 5899
5779 5779 5779 5778 5778 5777 5775 5774 5774 5773 5773 5773 5772 5771 5770 5770 5769 5769 5769 5769 5769 5770 5771 5771 5772 5772 5773 5774 5774 5774 5774 5775 5777 5778 5779 5780 5782 5784 5786 5789 5791 5793 5796 5800 5803 5806 5809 5810 5810 5813 5816 5820 5823 5825 5827 5831 5835 5838 5841 5844 5847 5849 5851 5854 5856 5857 5858 5858 5860 5863 5865 5867 5870 5872 5873 5874 5875 5878 5883 5887 5889 5891 5892 5893 5894 5895 5896 5897
5779 5778 5778 5777 5777 5776 5774 5773 5773 5773 5773 5773 5772 5771 5770 5769 5769 5769 5769 5769 5769 5769 5770 5770 5771 5771 5771 5773 5773 5773 5774 5775 5776 5777 5778 5779 5781 5782 5785 5788 5790 5792 5795 5798 5801 5803 5806 5808 5809 5812 5814 5818 5822 5824 5826 5829 5832 5835 5838 5840 5842 5845 5848 5851 5852 5854 5855 5856 5857 5860 5862 5864 5867 5869 5870 5871 5873 5876 5880 5883 5884 5886 5889 5890 5891 5892 5894 5895
5778 5778 5777 5776 5776 5775 5774 5773 5773 5773 5772 5772 5771 5770 5770 5769 5769 5768 5769 5769 5768 5769 5769 5770 5770 5770 5770 5771 5771 5772 5773 5774 5775 5776 5777 5778 5780 5781 5783 5785 5787 5790 5793 5796 5798 5801 5804 5807 5809 5811 5814 5817 5820 5823 5825 5827 5828 5831 5834 5836 5838 5841 5843 5846 5848 5850 5852 5853 5855 5858 5859 5861 5864 5866 5867 5868 5871 5874 5877 5879 5880 5883 5886 5888 5888 5890 5892 5893
5778 5777 5776 5776 5775 5775 5774 5773 5773 5772 5771 5771 5771 5770 5770 5769 5769 5768 5768 5768 5768 5768 5768 5768 5769 5769 5769 5769 5770 5771 5773 5774 5775 5776 5777 5778 5779 5780 5782 5783 5785 5788 5791 5794 5797 5800 5803 5805 5808 5810 5813 5816 5819 5820 5822 5824 5826 5828 5830 5831 5833 5836 5839 5842 5844 5847 5849 5850 5852 5855 5856 5858 5861 5863 5864 5865 5868 5870 5873 5875 5878 5880 5883 5885 5886 5887 5889 5891
5777 5777 5776 5775 5775 5774 5774 5773 5773 5772 5772 5771 5771 5770 5770 5769 5769 5769 5768 5768 5768 5768 5768 5768 5768 5768 5768 5769 5770 5771 5773 5773 5774 5775 5776 5777 5778 5779 5780 5781 5783 5786 5789 5792 5795 5799 5802 5804 5806 5808 5811 5814 5816 5817 5818 5820 5822 5825 5826 5827 5829 5832 5836 5838 5840 5842 5845 5847 5849 5852 5854 5856 5859 5860 5862 5864 5866 5868 5870 5872 5875 5878 5880 5881 5884 5885 5887 5889
5777 5776 5775 5775 5775 5774 5774 5773 5772 5772 5772 5771 5771 5770 5770 5769 5769 5769 5768 5768 5768 5767 5767 5767 5767 5768 5769 5769 5770 5771 5773 5773 5773 5774 5775 5776 5776 5777 5778 5780 5782 5785 5788 5792 5794 5797 5800 5801 5803 5805 5807 5809 5812 5814 5816 5816 5819 5822 5823 5825 5826 5829 5832 5834 5835 5839 5841 5843 5845 5848 5851 5855 5857 5859 5861 5863 5865 5867 5869 5870 5872 5875 5877 5879 5881 5883 5884 5885
5776 5775 5775 5774 5775 5774 5774 5773 5772 5772 5772 5771 5770 5770 5770 5770 5769 5769 5769 5768 5768 5767 5767 5767 5767 5767 5768 5769 5770 5771 5772 5773 5773 5774 5775 5775 5776 5777 5778 5779 5781 5784 5787 5790 5792 5795 5796 5798 5801 5803 5804 5805 5807 5810 5813 5814 5816 5818 5821 5823 5823 5825 5828 5831 5833 5836 5838 5840 5842 5844 5848 5852 5855 5857 5859 5861 5863 5865 5867 5869 5871 5873 5875 5877 5878 5880 5881 5883
5774 5774 5774 5774 5773 5773 5773 5773 5772 5772 5771 5771 5770 5769 5769 5769 5769 5769 5769 5768 5768 5768 5767 5767 5768 5767 5767 5768 5769 5770 5771 5772 5773 5774 5774 5775 5776 5777 5778 5779 5780 5782 5784 5787 5789 5792 5793 5795 5799 5801 5801 5803 5806 5808 5810 5813 5816 5818 5819 5820 5821 5823 5826 5828 5829 5832 5834 5836 5839 5842 5846 5849 5851 5854 5856 5858 5860 5863 5865 5867 5869 5871 5873 5874 5876 5878 5879 5881
5773 5773 5773 5773 5773 5772 5772 5772 5772 5772 5771 5771 5770 5770 5769 5769 5769 5769 5768 5768 5768 5768 5768 5767 5767 5767 5766 5767 5768 5769 5770 5771 5771 5772 5773 5774 5775 5776 5778 5779 5780 5781 5783 5785 5787 5789 5791 5793 5797 5799 5800 5801 5803 5805 5808 5812 5815 5817 5818 5818 5819 5822 5825 5825 5826 5829 5832 5834 5837 5840 5843 5846 5848 5850 5852 5854 5857 5860 5863 5865 5867 5869 5870 5872 5873 5875 5877 5878
5772 5772 5772 5772 5771 5771 5771 5771 5772 5771 5771 5771 5770 5770 5770 5769 5768 5768 5768 5768 5767 5768 5768 5767 5767 5766 5766 5766 5767 5768 5768 5770 5770 5771 5773 5774 5775 5776 5778 5778 5779 5780 5782 5783 5785 5787 5789 5791 5795 5798 5799 5800 5802 5803 5806 5810 5812 5813 5815 5816 5817 5820 5823 5824 5825 5827 5829 5832 5834 5837 5840 5843 5845 5847 5849 5851 5855 5858 5861 5864 5865 5867 5868 5869 5871 5872 5873 5875
5770 5771 5771 5771 5770 5770 5770 5771 5771 5771 5771 5771 5771 5770 5769 5769 5768 5768 5768 5767 5767 5767 5767 5767 5766 5766 5765 5766 5766 5767 5768 5769 5770 5770 5771 5772 5774 5775 5776 5776 5777 5778 5780 5782 5784 5786 5788 5790 5792 5796 5798 5799 5801 5803 5804 5806 5808 5809 5813 5814 5815 5818 5821 5822 5822 5824 5827 5829 5831 5834 5837 5839 5841 5843 5846 5848 5852 5855 5858 5861 5863 5865 5866 5867 5868 5869 5871 5872
5769 5769 5769 5769 5769 5770 5770 5770 5770 5770 5771 5771 5771 5770 5769 5769 5768 5768 5767 5767 5767 5767 5767 5767 5766 5766 5765 5765 5766 5767 5767 5768 5768 5769 5770 5771 5772 5774 5774 5775 5776 5777 5779 5780 5782 5784 5786 5788 5790 5794 5796 5796 5798 5801 5802 5804 5806 5808 5811 5813 5814 5816 5819 5820 5821 5823 5825 5827 5828 5830 5832 5835 5837 5839 5842 5845 5848 5852 5855 5857 5860 5862 5863 5864 5865 5867 5868 5869